{"data":{"norad_id":58108,"epoch":"2026-09-20T11:36:40.955904Z","epoch_age_seconds":141858,"freshness":"FRESH","line1":"1 58108U 23161M   26263.48380736  .00000713  00000+0  32256-4 0  9995","line2":"2 58108  53.1589 323.6192 0001249  81.3068 278.8076 15.34388143164484","mean_motion":15.34388143,"eccentricity":0.0001249,"inclination_deg":53.1589,"raan_deg":323.6192,"arg_perigee_deg":81.3068,"mean_anomaly_deg":278.8076,"bstar":3.2256e-5,"rev_number":16448,"period_min":93.848483290841,"perigee_km":461.8840565891,"apogee_km":463.59290728449,"semimajor_km":6840.8754819368,"source":"CELESTRAK","updated_at":"2026-09-21T09:00:33.788323Z"}}